Regional Weather Roundup
Issued by NWS Green Bay, WI

Home | Current Version | Previous Version | Graphics & Text | Print | Product List | Glossary Off
Versions: 1 2 3 4 5 6 7 8 9 10 11 12 13 14 15 16 17 18 19 20 21 22 23 24 25 26 27 28 29 30 31 32 33 34 35 36 37 38 39 40 41 42 43 44 45 46 47 48 49 50

000
ASUS43 KGRB 310510
RWRGRB

NORTH-CENTRAL AND NORTHEAST WISCONSIN REGIONAL WEATHER ROUNDUP
NATIONAL WEATHER SERVICE GREEN BAY WI
1200 AM CDT SUN AUG 31 2014

WIZ005-009-010>012-018-019-310600-
NORTH CENTRAL WISCONSIN

CITY           SKY/WX    TMP DP  RH WIND       PRES   REMARKS
IRONWOOD       MOCLDY    57  57 100 SE3       29.91
MANITOWISH WTR FOG       51  51 100 CALM      29.94S VSB 1/2
ARBOR VITAE    MOCLDY    57  55  95 CALM      29.94R FOG
EAGLE RIVER    CLOUDY    55  55 100 CALM      29.93S
LAND O LAKES   CLOUDY    57  56  94 N3        29.94S
RHINELANDER    CLOUDY    56  55  97 NW3       29.94S
PHILLIPS       PTCLDY    57  55  94 NE3       29.93F
ANTIGO         CLOUDY    58  56  94 N6        29.92F
TOMAHAWK       MOCLDY    55  53  94 CALM      29.94R
MERRILL        MOCLDY    57  56  96 CALM      29.93S
$$

WIZ013-073-310600-
NORTHEAST WISCONSIN

CITY           SKY/WX    TMP DP  RH WIND       PRES   REMARKS
IRON MOUNTAIN  CLOUDY    60  56  86 NW6       29.89S
MARINETTE      MOCLDY    61  57  88 NW8       29.87F
OCONTO         MOCLDY    61  61 100 CALM      29.89R
$$

WIZ017-030-035>037-045-310600-
CENTRAL WISCONSIN

CITY           SKY/WX    TMP DP  RH WIND       PRES   REMARKS
MEDFORD        PTCLDY    55  54  98 CALM      29.93S
WAUSAU         CLOUDY    62  58  86 NE3       29.91R
MOSINEE        CLOUDY    63  61  94 N5        29.92F
MARSHFIELD     CLOUDY    64  60  87 NE5       29.92R
WISC RAPIDS    CLEAR     64  61  90 NE5       29.91F
STEVENS POINT  CLOUDY    62  59  91 CALM      29.93R
WAUPACA        CLOUDY    67  64  93 N3        29.90F
SHAWANO        CLOUDY    66  61  85 N6        29.90S
CLINTONVILLE   CLOUDY    64  61  88 CALM      29.90S
$$

WIZ038-039-048-051-310600-
FOX VALLEY

CITY           SKY/WX    TMP DP  RH WIND       PRES   REMARKS
NWS GREEN BAY  CLOUDY    65  62  90 N7        29.89S
APPLETON       MOCLDY    63  63 100 N6        29.91S
OSHKOSH        PTCLDY    66  63  90 N5        29.89S
FOND DU LAC    PTCLDY    65  63  93 N3        29.90S
$$

WIZ022-050-052-310600-
EAST CENTRAL WISCONSIN

CITY           SKY/WX    TMP DP  RH WIND       PRES   REMARKS
STURGEON BAY   CLOUDY    63  57  82 NW7       29.89R
MANITOWOC      CLOUDY    67  64  90 N7        29.89S
SHEBOYGAN      CLEAR     63  62  97 SW3       29.89R
$$

LMZ563-521-522-541>543-310600-
LAKESHORE

STATION/POSITION TIME  TEMP    WIND        PRES    VSBY  WAVE
                       AIR SEA DIR/SP/G                  HT/PER
                 (UTC) (F)     (DEG/KT/KT) (MB)    (MI)  (FT/S)
SHEBOYGAN LKSHOR 0500   69 52  330/  4/  4 1012.2R
KEWAUNEE LKSHORE 0500   64      CALM  /  2 1011.3R
NORTHPORT PIER   0500   64     320/ 11/ 17 1011.2S
N MID LAKE BUOY  0500   63 65  300/ 16/ 17 1010.4R         3/ 4
S GREEN BAY BUOY 0500   65     VRB 12/ 16  1013.0R
SISTER BAY LKSHO 0400   64     330/ 14/ 16   N/A
CHAMBERS ISLAND  0500   63     280/  6/  9 1011.9S
MENOMINEE LKSHOR 0500   62     310/  6/  9 1012.3F
$$



USA.gov is the U.S. government's official web portal to all federal, state and local government web resources and services.